星链-4368 (STARLINK-4368 )

导读

STARLINK-4368是美国太空探索技术公司(SpaceX)星链(Starlink)项目的一颗低轨互联网通信卫星,于2022年7月22日发射升空。作为星链星座的组成部分,它旨在为全球提供低成本、高性能的空间互联网服务,覆盖陆、海、空等多领域用户,助力实现全球无缝网络覆盖,是SpaceX推进大规模低轨卫星互联网组网的一环,目前在近地轨道运行,为全球互联网接入服务提供支撑。

Basic Information
目录编号:
53234
目录名称:
STARLINK-4368
国际标识:
2022-084AX
轨道中心:
EARTH
卫星名称:
星链-4368
卫星全名:
星链-4368 (STARLINK-4368 )
卫星状态:
在轨 (已飞行1505 天)
发射日期:
2022-07-22 UTC
国别 :
美国 (US)
星等 :
--
Orbit Information
数据来源 国际轨道数据
星历时间: 2026-09-03T12:02:56+0800
1天前
查看轨道信息
半长轴: 6833.215km
偏心率: 0.0001167
轨道倾角: 97.510°
近地点辐角 111.478°
升交点赤经 310.528°
平近点角 248.659°
近地点: 454.28km
远地点: 455.876km
周期: 93.691分钟
每日圈数: 15.369691
Detailed Information
固有亮度:
5
最大亮度:
2.5
卫星平台:
Starlink v1.5
覆盖范围:
全球
运营商:
太空探索技术公司
运营商所在国:
美国
制造商(研发单位):
太空探索技术公司
制造商所在国:
美国
使用方式:
暂无
Satellite Introduction
星链(Starlink)计划是由太空探索技术公司(SpaceX)提出的一个巨型低轨卫星互联网星座项目,计划在2019年至2024年间在太空搭建由约1.2万颗卫星组成的“星链”网络,其中1584颗将部署在地球上空550千米处的近地轨道,并从2020年开始工作。该卫星仍在工作。
2D Orbit Map
3D Orbit Map
Orbit Altitude Analysis Chart
Orbit Inclination Analysis Chart
Orbit Comprehensive Analysis Chart
View Comprehensive Chart
Conjunction Data List
Event ID Objects TCA Miss Dist (km) Collision Risk Probability Collision Risk Index (CRI) Action
CDM_260905-123505-323405-675021
2026-09-05T
12:35:46+0000
1.690 km
极远距离
4.515048E-6 低风险 0.48